Simultaneous Nadir Overpasses (SNOs) Predictions

Prediction of SNOs between LANDSAT-8 and NPP Satellite Orbit:

Table of predicted SNOs for the next 14.0 days since TLE Epoch: 10/29/2016
Index Date (LANDSAT-8) Time (LANDSAT-8) Lat,Lon (LANDSAT-8) SZA (LANDSAT-8 ) Date (NPP) Time (NPP) Lat,Lon (NPP) SZA (NPP ) Distance(km) Time Diff (sec)
1 10/31/2016 14:42:16 -70.16, 136.04 95.58 10/31/2016 14:41:31 -70.14, 136.03 95.60 1.80 45
2 10/31/2016 15:31:44 70.00, -56.54 84.28 10/31/2016 15:32:15 70.02, -56.48 84.30 3.04 31
3 11/03/2016 06:09:04 70.81, 85.25 85.92 11/03/2016 06:07:56 70.89, 83.28 85.99 72.25 68
4 11/03/2016 06:58:45 -70.10,-108.17 94.80 11/03/2016 06:58:25 -70.11,-108.17 94.78 2.02 20
5 11/03/2016 07:48:12 69.99, 59.32 85.11 11/03/2016 07:49:09 70.00, 59.32 85.12 0.67 57
6 11/05/2016 22:25:44 70.19,-159.79 86.10 11/05/2016 22:24:38 70.18,-159.83 86.10 1.36 66
7 11/05/2016 23:15:14 -70.08, 7.69 94.00 11/05/2016 23:15:20 -70.09, 7.64 93.99 2.00 6
8 11/06/2016 00:04:47 69.64, 174.72 85.57 11/06/2016 00:05:57 69.61, 175.67 85.54 36.81 70
9 11/08/2016 14:42:14 70.11, -44.03 86.80 11/08/2016 14:41:32 70.11, -43.95 86.81 2.96 42
10 11/08/2016 15:31:44 -70.00, 123.46 93.30 11/08/2016 15:32:14 -70.01, 123.52 93.28 2.72 30
11 11/11/2016 06:09:04 -70.84, -94.71 91.72 11/11/2016 06:07:56 -70.88, -96.72 91.68 73.46 68
12 11/11/2016 06:58:43 70.07, 71.80 87.52 11/11/2016 06:58:27 70.10, 71.84 87.55 3.21 16
13 11/11/2016 07:48:13 -69.97,-120.71
